Weather in Hubli

India     15°21′01″N   75°08′14″E
temp.,
°C
wind,
m/s
gust,
m/s
humid.,
%
clouds,
%
prec.,
mm/h
press.,
hPa
HPBL,
m
20 january, thu
thu2023:30+21ene334364 0.0 101324
02:30+20ese2248100 0.0 101211
05:30+18s1159100 0.0 101211
08:30+22w004922 0.0 1014119
11:30+27n232892 0.0 10131435
14:30+30n44205 0.0 10092019
17:30+30nne442141 0.0 10091591
20:30+25ne222844 0.0 101119
21 january, fri
fri2123:30+20wsw22515 0.0 101311
02:30+19w22504 0.0 101111
05:30+18wsw115383 0.0 101111
08:30+23nne113894 0.0 101492
11:30+29nne22245 0.0 10141266
14:30+32n46175 0.0 10103015
17:30+31nne45175 0.0 10091485
20:30+24nne222599 0.0 101220
22 january, sat
sat2223:30+22w444961 0.0 101339
02:30+19w22565 0.0 101115
05:30+18wsw33595 0.0 101125
08:30+21wsw33501 0.0 1013145
11:30+28wsw33290 0.0 1012992
14:30+31w55214 0.0 10082747
17:30+29w772319 0.0 10071218
20:30+22w611585 0.0 1011220
23 january, sun
sun2323:30+19w59780 0.0 1011148
02:30+17wnw46770 0.0 100987
05:30+16wnw33710 0.0 101020
08:30+19wnw23544 0.0 1012178
11:30+27w44295 0.0 1011985
14:30+30wsw45215 0.0 10072552
17:30+29w77262 0.0 10071672
20:30+21w610700 0.0 1011282
24 january, mon
mon2423:30+18w510968 0.0 1012211
02:30+16wnw489326 0.0 1010149
05:30+15wnw22925 0.0 101015
08:30+18wnw01774 0.0 1013232
11:30+24sw12465 0.0 10121115
14:30+28sw44350 0.0 10081906
17:30+28sw23321 0.0 10072358
20:30+21w58550 0.0 1011178